This demonstration page uses our WeatherBlox Daily Observations layout. Learn more.

Left ArrowRight Arrow

39.29038, -76.61219

Hourly Observations for April 24, 2022

Temp ( °F °C ) Dew Point ( °F °C ) Humidity (%) Winds ( mph kmh ) Pressure ( in mb ) Visibility ( mi km ) Precip ( " mm )
12:54 am 00:54 Mostly Clear 56 13.3 47 8.3 72 72 ENE 5 7 30.17 1022 10 16 0.00 0.00
1:54 am 01:54 Mostly Clear 55 12.8 48 8.9 77 77 E 6 9 30.14 1021 10 16 0.00 0.00
2:54 am 02:54 Partly Cloudy 55 12.8 48 8.9 77 77 NNE 6 9 30.13 1020 10 16 0.00 0.00
3:54 am 03:54 Partly Cloudy 54 12.2 48 8.9 80 80 N 3 6 30.12 1020 10 16 0.00 0.00
4:54 am 04:54 Mostly Clear 53 11.7 47 8.3 80 80 NNE 6 9 30.12 1020 10 16 0.00 0.00
5:54 am 05:54 Mostly Clear 53 11.7 47 8.3 80 80 NNE 3 6 30.13 1020 10 16 0.00 0.00
6:54 am 06:54 Partly Cloudy 55 12.8 47 8.3 74 74 NE 6 9 30.14 1021 10 16 0.00 0.00
7:54 am 07:54 Mostly Sunny 56 13.3 48 8.9 75 75 VRB 5 7 30.16 1021 10 16 0.00 0.00
8:54 am 08:54 Mostly Sunny 60 15.6 49 9.4 67 67 ENE 5 7 30.17 1022 10 16 0.00 0.00
9:54 am 09:54 Mostly Sunny 64 17.8 49 9.4 58 58 Calm 30.16 1022 10 16 0.00 0.00
10:54 am 10:54 Mostly Sunny 67 19.4 50 10 55 55 ESE 6 9 30.16 1022 10 16 0.00 0.00
11:54 am 11:54 Mostly Sunny 70 21.1 51 10.6 51 51 VRB 6 9 30.16 1022 10 16 0.00 0.00
12:54 pm 12:54 Mostly Sunny 70 21.1 52 11.1 53 53 E 12 19 30.15 1021 10 16 0.00 0.00
1:54 pm 13:54 Mostly Sunny 73 22.8 53 11.7 50 50 E 12 19 30.14 1021 10 16 0.00 0.00
2:54 pm 14:54 Mostly Sunny 75 23.9 56 13.3 52 52 E 9 15 30.12 1020 10 16 0.00 0.00
3:54 pm 15:54 Mostly Sunny 78 25.6 57 13.9 48 48 ENE 8 13 30.11 1020 10 16 0.00 0.00
4:54 pm 16:54 Mostly Sunny 76 24.4 57 13.9 52 52 E 13 20 30.11 1020 10 16 0.00 0.00
5:54 pm 17:54 Mostly Sunny 74 23.3 53 11.7 48 48 ENE 16 26 30.11 1020 10 16 0.00 0.00
6:54 pm 18:54 Mostly Sunny 69 20.6 50 10 51 51 E 15 24 30.11 1020 10 16 0.00 0.00
7:54 pm 19:54 Partly Cloudy 65 18.3 47 8.3 52 52 E 16 26 30.12 1020 10 16 0.00 0.00
8:54 pm 20:54 Partly Cloudy 61 16.1 47 8.3 60 60 E 14 22 30.13 1020 10 16 0.00 0.00
9:54 pm 21:54 Mostly Clear 59 15 48 8.9 67 67 E 13 20 30.14 1021 10 16 0.00 0.00
10:54 pm 22:54 Mostly Clear 58 14.4 48 8.9 70 70 E 9 15 30.14 1021 10 16 0.00 0.00
11:54 pm 23:54 Mostly Clear 56 13.3 48 8.9 75 75 E 9 15 30.14 1021 10 16 0.00 0.00

Powered by AerisWeather